Weather History for Flint, MI

Change the Weather History Date:

Saturday, October 11, 2014

  Actual Average Record
Temperature  
Mean Temperature 45 °F 51 °F  
Max Temperature 60 °F 62 °F 85 °F (1938)
Min Temperature 30 °F 41 °F 22 °F (1964)
Degree Days  
Heating Degree Days 20 14  
Month to date heating degree days 131 138  
Since 1 July heating degree days 294 348  
Cooling Degree Days 0 0  
Month to date cooling degree days 0 2  
Year to date cooling degree days 596 528  
Moisture  
Dew Point 32 °F    
Average Humidity 66    
Maximum Humidity 92    
Minimum Humidity 39    
Precipitation  
Precipitation 0.00 in 0.08 in 0.76 in (1949)
Month to date precipitation 0.59 0.99  
Year to date precipitation 30.83 25.30  
Snow  
Snow 0.00 in 0.00 in T in (1988)
Month to date snowfall 0.0 0.1  
Since 1 July snowfall 0.0 0.1  
Since 1 September snowfall 0.0 0.1  
Snow Depth 0.00 in    
Sea Level Pressure  
Sea Level Pressure 30.23 in    
Wind  
Wind Speed 2 mph (West)    
Max Wind Speed 9 mph    
Max Gust Speed 13 mph    
Visibility 10 miles    
Events      
T = Trace of Precipitation, MM = Missing Value Source: NWS Daily Summary

Daily Weather History Graph

Daily Weather History Graph

Search for Another Location

Airport:

Trip Planner

Search our weather history database for the weather conditions in past years. The results will help you decide how hot, cold, wet, or windy it might be!

Date:

Astronomy

Oct. 11, 2014 Rise Set
Actual Time 7:43 AM EDT 6:58 PM EDT
Civil Twilight 7:15 AM EDT 7:27 PM EDT
Nautical Twilight 6:42 AM EDT 8:00 PM EDT
Astronomical Twilight 6:09 AM EDT 8:33 PM EDT
Moon 9:21 PM EDT (10/11) 11:10 AM EDT (10/11)
Length of Visible Light 12h 12m
Length of Day
11h 15m
Waning Gibbous, 87% of the Moon is Illuminated
Oct 11
Waning Gibbous
Oct 15
Last Quarter
Oct 23
New
Oct 30
First Quarter
Nov 6
Full

Hourly Weather History & Observations

Time (EDT) Temp. Windchill Dew Point Humidity Pressure Visibility Wind Dir Wind Speed Gust Speed Precip Events Conditions
12:53 AM 37.0 °F - 34.0 °F 89% 30.18 in 10.0 mi Calm Calm - N/A   Clear
1:53 AM 35.1 °F - 32.0 °F 89% 30.19 in 10.0 mi Calm Calm - N/A   Clear
2:53 AM 35.1 °F - 32.0 °F 89% 30.18 in 9.0 mi Calm Calm - N/A   Clear
3:53 AM 33.1 °F - 30.0 °F 89% 30.18 in 8.0 mi Calm Calm - N/A   Clear
4:53 AM 33.8 °F - 30.2 °F 87% 30.18 in 8.0 mi Calm Calm - N/A   Clear
5:53 AM 32.0 °F - 28.4 °F 87% 30.19 in 7.0 mi Calm Calm - N/A   Clear
6:53 AM 30.9 °F - 28.0 °F 89% 30.22 in 10.0 mi Calm Calm - N/A   Clear
7:53 AM 33.1 °F - 28.9 °F 85% 30.24 in 10.0 mi Calm Calm - N/A   Clear
8:53 AM 37.0 °F - 33.1 °F 86% 30.27 in 8.0 mi Calm Calm - N/A   Clear
9:53 AM 46.0 °F - 39.0 °F 76% 30.29 in 10.0 mi Calm Calm - N/A   Clear
10:53 AM 51.1 °F - 39.0 °F 63% 30.28 in 10.0 mi Calm Calm - N/A   Clear
11:53 AM 53.1 °F - 35.1 °F 50% 30.28 in 10.0 mi Variable 3.5 mph - N/A   Clear
12:53 PM 55.9 °F - 35.1 °F 45% 30.28 in 10.0 mi Calm Calm - N/A   Clear
1:53 PM 55.9 °F - 32.0 °F 40% 30.25 in 10.0 mi Variable 4.6 mph - N/A   Scattered Clouds
2:53 PM 57.9 °F - 33.1 °F 39% 30.24 in 10.0 mi Variable 5.8 mph - N/A   Partly Cloudy
3:53 PM 57.9 °F - 33.1 °F 39% 30.22 in 10.0 mi Variable 3.5 mph - N/A   Clear
4:53 PM 57.2 °F - 32.0 °F 38% 30.20 in 10.0 mi WNW 8.1 mph - N/A   Clear
5:53 PM 57.0 °F - 32.0 °F 39% 30.22 in 10.0 mi West 4.6 mph - N/A   Clear
6:53 PM 54.0 °F - 30.9 °F 41% 30.22 in 10.0 mi Calm Calm - N/A   Clear
7:53 PM 48.9 °F - 32.0 °F 52% 30.24 in 10.0 mi Calm Calm - N/A   Clear
8:53 PM 39.9 °F - 34.0 °F 79% 30.25 in 10.0 mi Calm Calm - N/A   Clear
9:53 PM 39.0 °F - 34.0 °F 82% 30.25 in 10.0 mi Calm Calm - N/A   Clear
10:53 PM 37.9 °F - 33.1 °F 83% 30.25 in 10.0 mi Calm Calm - N/A   Clear
11:53 PM 39.0 °F 34.0 °F 33.1 °F 79% 30.25 in 10.0 mi SSE 6.9 mph - N/A   Clear